"Pseudo-MPEC" for CAQ8ZZ2

Created 2024 Sep 5 13:22:06 UT using Find_Orb

Click here for an explanation of pseudo-MPECs

 
 Astrometry: 
     CAQ8ZZ2*1C2024 09 03.37632600 08 07.631+00 18 32.36   ~93Bq       VNEOCPG96
     CAQ8ZZ2 1C2024 09 03.38143300 08 08.257+00 19 06.96   ~93Bq 20.89GVNEOCPG96
     CAQ8ZZ2 1C2024 09 03.38653000 08 08.905+00 19 41.41   ~93Bq 21.78GVNEOCPG96
     CAQ8ZZ2 1C2024 09 03.39162500 08 09.532+00 20 14.28   ~93Bqx20.78GVNEOCPG96
     CAQ8ZZ2 KC2024 09 03.43872700 08 15.997+00 25 31.40   ~93Cb 20.94GVNEOCPI52
     CAQ8ZZ2 KC2024 09 03.44214200 08 16.505+00 25 55.49   ~93Cb 21.11GVNEOCPI52
     CAQ8ZZ2 KC2024 09 03.44554900 08 16.930+00 26 19.18   ~93Cb 20.44GVNEOCPI52
     CAQ8ZZ2 KC2024 09 03.44895700 08 17.412+00 26 41.06   ~93Cb       VNEOCPI52
     CAQ8ZZ2 !C2024 09 04.02055600 10 44.243+01 29 07.02   ~94Ib 21.4 GVNEOCPJ04
     CAQ8ZZ2 !C2024 09 04.02418600 10 44.699+01 29 30.41   ~94Ib 21.8 GVNEOCPJ04
     CAQ8ZZ2 !C2024 09 04.02766200 10 45.162+01 29 52.74   ~94Ib 21.2 GVNEOCPJ04
     CAQ8ZZ2 1C2024 09 04.36169000 11 50.111+02 04 23.30   ~949q 21.19GVNEOCPG96
     CAQ8ZZ2 1C2024 09 04.36362900 11 50.312+02 04 35.26   ~949q 20.96GVNEOCPG96
     CAQ8ZZ2 1C2024 09 04.36556800 11 50.550+02 04 47.32   ~949q 21.35GVNEOCPG96
     CAQ8ZZ2 !C2024 09 04.41693 00 11 58.30 +02 09 54.4    ~94Ab 20.7 GVNEOCP673
     CAQ8ZZ2 !C2024 09 04.42096 00 11 58.78 +02 10 18.7    ~94Ab       VNEOCP673
     CAQ8ZZ2 1C2024 09 05.05690 00 14 10.53 +03 12 19.0    ~956b 20.8 VXNEOCP033
     CAQ8ZZ2 1C2024 09 05.05955 00 14 10.87 +03 12 34.1    ~956b 20.9 VXNEOCP033
     CAQ8ZZ2 1C2024 09 05.06278 00 14 11.27 +03 12 52.8    ~956b 21.2 VXNEOCP033
     CAQ8ZZ2 KC2024 09 05.26518800 14 56.93 +03 32 51.8    ~956q 21.1 GVNEOCPH21
     CAQ8ZZ2 KC2024 09 05.27078200 14 57.51 +03 33 23.5    ~956q 21.1 GVNEOCPH21

Station data:
(033) Karl Schwarzschild Observatory, Tautenburg  (N50.980139 E11.711240)
   Germany.  Observer B. Stecklum. 1.34-m f/3 Schmidt + CCD.
(673) Table Mountain Observatory, Wrightwood  (N34.381485 W117.682170)
   US/California.  Observers J. Chesley, J. Pittichova. Measurer W. M. Owen
   Jr. 0.61-m f/16 reflector + CCD.
(G96) Mt. Lemmon Survey  (N32.442729 W110.788720)  US/Arizona.  Observer E.
   J. Christensen. 1.5-m reflector + 10K CCD.
(H21) Astronomical Research Observatory, Westfield  (N39.483054 W87.968270)
   US/Illinois.  Observer R. Holmes. Measurers S. Foglia, L. Buzzi, T.
   Linder, R. Holmes. 0.76-m f/3.0 astrograph + CCD0.81-m f/4.0 astrograph +
   CCD0.61-m f/4.5 astrograph + CCD0.40-m f/5.32 astrograph + CCD.
(I52) Steward Observatory, Mt. Lemmon Station  (N32.442570 W110.788920)
   US/Arizona.  Observers T. A. Pruyne, B. M. Africano, E. J. Christensen, G.
   A. Farneth, D. C. Fuls, A. R. Gibbs, A. D. Grauer, H. Gröller, J. A.
   Johnson, R. A. Kowalski, S. M. Larson, G. J. Leonard, D. Rankin, R. L.
   Seaman, F. C. Shelly, K. W. Wierzchoś. 1.0-m prime focus + CCD.
(J04) ESA Optical Ground Station, Tenerife  (N28.300921 W16.511830)  Canary
   Islands (Spain).  Observer R. Kresken. Measurers M. Micheli, D. Koschny,
   E. Schwab, M. Busch, A. Knöfel. 1.0-m f/4.4 reflector + CCD.

Orbital elements:  CAQ8ZZ2
   Perihelion 2024 Aug 17.34212 +/- 0.023 TT =  8:12:39 (JD 2460539.84212)
Epoch 2024 Sep  5.0 TT = JDT 2460558.5   Earth MOID: 0.0197      AutoNEOCP
M  12.98766324 +/- 0.011            (J2000 ecliptic)
n   0.69609551 +/- 0.000548         Peri.  342.21785 +/- 0.025
a   1.26092762 +/- 0.000661         Node   341.96301 +/- 0.0011
e   0.1840148 +/- 0.000414          Incl.    2.09671 +/- 0.0034
P   1.416/517.161d         H 27.80  G  0.15   U  7.7
q 1.02889823 +/- 3.1e-5    Q 1.49295701 +/- 0.00131
20 of 21 observations 2024 Sept. 3-5 (45.5 hr); mean residual 0".39
Residuals in arcseconds: 
240903 G96  .76+  .63-    240903 I52  .68-  .45+    240904 673  .03+  .18+    
240903 G96  .12+  .44-    240904 J04  .30-  .26-    240904 673  .21+  .14-    
240903 G96  .19-  .32-    240904 J04  .30-  .00     240905 033  .10+  .06-    
240903 G96( .85-  1.7-)   240904 J04  .16+  .19+    240905 033  .14+  .23-    
240903 I52  .05+  .76-    240904 G96  .27+  .16-    240905 033  .04-  .12-    
240903 I52  .40+  .47+    240904 G96  .03+  .14-    240905 H21  .06-  .22+    
240903 I52  .54-  1.4+    240904 G96  .35+  .01-    240905 H21  .31-  .16+    

Ephemerides (geocentric):
Date (UTC) HH   RA             Dec           delta  r     elong  mag " sig PA
---- --------  ------------   ------------  ------ ------ -----  --- --------
2024 09 05 13  00 15 47.055   +04 01 14.09  .03244 1.0383 157.8 21.5 .413   0
2024 09 05 14  00 15 54.914   +04 05 03.18  .03250 1.0383 157.8 21.5 .423   0
2024 09 05 15  00 16 02.740   +04 08 51.39  .03256 1.0383 157.8 21.5 .433   1
2024 09 05 16  00 16 10.533   +04 12 38.73  .03261 1.0384 157.7 21.5 .443   1
2024 09 05 17  00 16 18.294   +04 16 25.19  .03267 1.0384 157.7 21.5 .453   1
2024 09 05 18  00 16 26.022   +04 20 10.79  .03273 1.0385 157.7 21.5 .464   1
2024 09 05 19  00 16 33.717   +04 23 55.51  .03279 1.0385 157.7 21.5 .474   2
2024 09 05 20  00 16 41.381   +04 27 39.38  .03285 1.0385 157.7 21.5 .485   2
2024 09 05 21  00 16 49.012   +04 31 22.38  .03291 1.0386 157.7 21.5 .497   2
2024 09 05 22  00 16 56.611   +04 35 04.53  .03297 1.0386 157.6 21.5 .508   2
2024 09 05 23  00 17 04.178   +04 38 45.82  .03303 1.0387 157.6 21.5 .520   3
2024 09 06 00  00 17 11.714   +04 42 26.27  .03309 1.0387 157.6 21.5 .531   3
2024 09 06 01  00 17 19.218   +04 46 05.87  .03315 1.0387 157.6 21.5 .543   3
2024 09 06 02  00 17 26.691   +04 49 44.62  .03321 1.0388 157.6 21.5 .556   3
2024 09 06 03  00 17 34.132   +04 53 22.54  .03327 1.0388 157.6 21.5 .568   4
2024 09 06 04  00 17 41.543   +04 56 59.62  .03333 1.0389 157.5 21.6 .581   4
2024 09 06 05  00 17 48.922   +05 00 35.87  .03339 1.0389 157.5 21.6 .594   4
2024 09 06 06  00 17 56.271   +05 04 11.28  .03345 1.0390 157.5 21.6 .607   5
2024 09 06 07  00 18 03.589   +05 07 45.87  .03351 1.0390 157.5 21.6 .620   5
2024 09 06 08  00 18 10.876   +05 11 19.64  .03357 1.0390 157.5 21.6 .633   5
2024 09 06 09  00 18 18.133   +05 14 52.59  .03363 1.0391 157.5 21.6 .647   5
2024 09 06 10  00 18 25.360   +05 18 24.72  .03369 1.0391 157.4 21.6 .661   6
2024 09 06 11  00 18 32.557   +05 21 56.03  .03375 1.0392 157.4 21.6 .675   6
2024 09 06 12  00 18 39.724   +05 25 26.54  .03381 1.0392 157.4 21.6 .689   6
2024 09 06 13  00 18 46.860   +05 28 56.24  .03387 1.0392 157.4 21.6 .704   6
2024 09 06 14  00 18 53.968   +05 32 25.13  .03393 1.0393 157.4 21.6 .718   6
2024 09 06 15  00 19 01.045   +05 35 53.23  .03399 1.0393 157.4 21.6 .733   7
2024 09 06 16  00 19 08.093   +05 39 20.52  .03405 1.0394 157.3 21.6 .748   7
2024 09 06 17  00 19 15.112   +05 42 47.02  .03411 1.0394 157.3 21.6 .763   7
2024 09 06 18  00 19 22.102   +05 46 12.73  .03417 1.0395 157.3 21.6 .778   7
2024 09 06 19  00 19 29.062   +05 49 37.66  .03423 1.0395 157.3 21.6 .794   8
2024 09 06 20  00 19 35.994   +05 53 01.79  .03429 1.0395 157.3 21.6 .809   8
2024 09 06 21  00 19 42.897   +05 56 25.15  .03435 1.0396 157.3 21.6 .825   8
2024 09 06 22  00 19 49.771   +05 59 47.72  .03441 1.0396 157.3 21.6 .841   8
2024 09 06 23  00 19 56.616   +06 03 09.52  .03447 1.0397 157.2 21.6 .857   8
2024 09 07 00  00 20 03.434   +06 06 30.55  .03453 1.0397 157.2 21.6 .874   9
2024 09 07 01  00 20 10.223   +06 09 50.81  .03460 1.0398 157.2 21.6 .890   9
2024 09 07 02  00 20 16.983   +06 13 10.30  .03466 1.0398 157.2 21.7 .907   9
2024 09 07 03  00 20 23.716   +06 16 29.03  .03472 1.0398 157.2 21.7 .923   9
2024 09 07 04  00 20 30.421   +06 19 47.00  .03478 1.0399 157.2 21.7 .940   9
2024 09 07 05  00 20 37.098   +06 23 04.21  .03484 1.0399 157.2 21.7 .957  10
2024 09 07 06  00 20 43.748   +06 26 20.66  .03490 1.0400 157.2 21.7 .975  10
2024 09 07 07  00 20 50.370   +06 29 36.37  .03496 1.0400 157.1 21.7 0.99  10
2024 09 07 08  00 20 56.964   +06 32 51.32  .03503 1.0401 157.1 21.7 1.01  10
2024 09 07 09  00 21 03.531   +06 36 05.54  .03509 1.0401 157.1 21.7 1.03  10
2024 09 07 10  00 21 10.071   +06 39 19.00  .03515 1.0401 157.1 21.7 1.05  10
2024 09 07 11  00 21 16.584   +06 42 31.73  .03521 1.0402 157.1 21.7 1.06  11
2024 09 07 12  00 21 23.071   +06 45 43.73  .03527 1.0402 157.1 21.7 1.08  11